| time (UTC) | temp F | wind direction | speed knots | gust knots | rain 1hr in | rain 24hr in | rain mn in | humidity % | barometer mb |
| 20260505064308 | 59 | 5 | 2.6 | 10.4 | 0.00 | 0.03 | 0.00 | 48 | 1003.4 |
| 20260505063308 | 60 | 25 | 3.5 | 7.8 | 0.00 | 0.03 | 0.00 | 49 | 1003.4 |
| 20260505062307 | 61 | 14 | 2.6 | 8.7 | 0.00 | 0.03 | 0.00 | 49 | 1003.7 |
| 20260505061306 | 61 | 3 | 5.2 | 8.7 | 0.00 | 0.03 | 0.00 | 50 | 1003.0 |
| 20260505060306 | 62 | 351 | 4.3 | 7.8 | 0.00 | 0.03 | 0.00 | 51 | 1003.0 |
| 20260505055305 | 63 | 352 | 4.3 | 7.8 | 0.00 | 0.03 | 0.00 | 50 | 1002.7 |
| 20260505054304 | 63 | 36 | 0.9 | 11.3 | 0.00 | 0.03 | 0.00 | 49 | 1002.4 |
| 20260505053304 | 63 | 15 | 6.1 | 12.2 | 0.00 | 0.05 | 0.00 | 49 | 1001.7 |
| 20260505052304 | 64 | 21 | 2.6 | 6.1 | 0.00 | 0.06 | 0.00 | 53 | 1001.7 |
| 20260505051302 | 64 | 30 | 3.5 | 7.8 | 0.00 | 0.06 | 0.00 | 52 | 1001.4 |
| 20260505050301 | 65 | 22 | 4.3 | 7.0 | 0.00 | 0.06 | 0.00 | 51 | 1001.4 |
| 20260505041227 | 67 | 38 | 3.5 | 8.7 | 0.01 | 0.06 | 0.06 | 52 | 1001.0 |
| 20260505040155 | 68 | 34 | 5.2 | 10.4 | 0.01 | 0.06 | 0.06 | 53 | 1000.7 |
| 20260505035154 | 68 | 22 | 2.6 | 6.1 | 0.01 | 0.06 | 0.06 | 59 | 1000.7 |
| 20260505034154 | 68 | 20 | 0.0 | 9.6 | 0.01 | 0.06 | 0.06 | 60 | 1000.3 |
| 20260505033153 | 70 | 25 | 3.5 | 9.6 | 0.01 | 0.06 | 0.06 | 60 | 999.7 |
| 20260505032122 | 71 | 1 | 5.2 | 8.7 | 0.01 | 0.06 | 0.06 | 58 | 999.7 |
| 20260505031121 | 72 | 12 | 2.6 | 10.4 | 0.00 | 0.05 | 0.05 | 57 | 999.7 |
| 20260505030120 | 73 | 323 | 3.5 | 10.4 | 0.00 | 0.05 | 0.05 | 66 | 999.3 |
| 20260505025119 | 74 | 240 | 7.8 | 13.0 | 0.00 | 0.05 | 0.05 | 66 | 998.0 |
| 20260505024119 | 75 | 236 | 1.7 | 5.2 | 0.00 | 0.05 | 0.05 | 66 | 998.0 |
| 20260505023016 | 75 | 232 | 1.7 | 3.5 | 0.00 | 0.05 | 0.05 | 62 | 998.0 |
| 20260505022015 | 75 | 231 | 0.9 | 5.2 | 0.00 | 0.05 | 0.05 | 61 | 997.6 |
| 20260505021014 | 75 | 241 | 1.7 | 4.3 | 0.00 | 0.05 | 0.05 | 60 | 997.6 |
| 20260505015943 | 76 | 248 | 2.6 | 4.3 | 0.00 | 0.05 | 0.05 | 58 | 997.6 |
| 20260505014942 | 76 | 248 | 0.0 | 0.0 | 0.00 | 0.05 | 0.05 | 58 | 997.3 |
| 20260505013942 | 76 | 248 | 0.0 | 2.6 | 0.00 | 0.05 | 0.05 | 57 | 997.3 |
| 20260505012941 | 77 | 248 | 0.9 | 4.3 | 0.00 | 0.05 | 0.05 | 57 | 997.3 |
| 20260505011940 | 77 | 253 | 2.6 | 4.3 | 0.00 | 0.05 | 0.05 | 56 | 997.0 |
| 20260505010939 | 78 | 254 | 0.9 | 4.3 | 0.00 | 0.05 | 0.05 | 55 | 997.0 |
| 20260505005938 | 78 | 254 | 0.0 | 3.5 | 0.00 | 0.05 | 0.05 | 54 | 997.0 |
| 20260505004938 | 78 | 254 | 1.7 | 5.2 | 0.00 | 0.05 | 0.05 | 53 | 997.0 |
| 20260505003906 | 79 | 236 | 2.6 | 7.8 | 0.00 | 0.05 | 0.05 | 53 | 996.6 |
| 20260505002804 | 79 | 281 | 2.6 | 8.7 | 0.00 | 0.05 | 0.05 | 52 | 996.6 |
| 20260505001803 | 79 | 234 | 2.6 | 7.8 | 0.00 | 0.05 | 0.05 | 51 | 996.6 |
| 20260505000731 | 79 | 233 | 6.1 | 10.4 | 0.00 | 0.05 | 0.05 | 50 | 996.6 |
| 20260504235731 | 80 | 237 | 4.3 | 12.2 | 0.00 | 0.05 | 0.05 | 49 | 996.6 |
| 20260504234730 | 81 | 270 | 6.1 | 13.0 | 0.00 | 0.05 | 0.05 | 49 | 997.0 |
| 20260504233730 | 81 | 236 | 8.7 | 12.2 | 0.00 | 0.05 | 0.05 | 48 | 997.0 |
| 20260504232729 | 81 | 233 | 7.0 | 12.2 | 0.00 | 0.05 | 0.05 | 49 | 997.0 |
| 20260504231729 | 81 | 245 | 4.3 | 13.0 | 0.00 | 0.05 | 0.05 | 49 | 997.3 |
| 20260504230728 | 81 | 238 | 5.2 | 11.3 | 0.00 | 0.05 | 0.05 | 49 | 997.3 |
| 20260504225727 | 81 | 240 | 5.2 | 13.0 | 0.00 | 0.05 | 0.05 | 48 | 997.3 |
| 20260504224726 | 81 | 261 | 7.0 | 10.4 | 0.00 | 0.05 | 0.05 | 48 | 997.6 |
| 20260504223726 | 82 | 229 | 4.3 | 12.2 | 0.00 | 0.05 | 0.05 | 47 | 997.6 |
| 20260504222725 | 81 | 247 | 3.5 | 8.7 | 0.00 | 0.05 | 0.05 | 48 | 997.6 |
| 20260504221724 | 81 | 217 | 3.5 | 9.6 | 0.00 | 0.05 | 0.05 | 47 | 997.6 |
| 20260504220652 | 81 | 248 | 7.0 | 12.2 | 0.00 | 0.05 | 0.05 | 47 | 997.6 |
| 20260504215652 | 81 | 242 | 7.8 | 13.9 | 0.00 | 0.05 | 0.05 | 47 | 997.6 |
| 20260504214651 | 82 | 229 | 4.3 | 9.6 | 0.00 | 0.05 | 0.05 | 46 | 997.6 |
| 20260504213651 | 82 | 234 | 3.5 | 9.6 | 0.00 | 0.05 | 0.05 | 46 | 997.6 |
| 20260504212650 | 82 | 244 | 3.5 | 9.6 | 0.00 | 0.05 | 0.05 | 47 | 997.6 |
| 20260504211618 | 82 | 262 | 6.1 | 13.0 | 0.00 | 0.05 | 0.05 | 46 | 998.0 |
| 20260504210618 | 82 | 218 | 3.5 | 13.0 | 0.00 | 0.05 | 0.05 | 47 | 998.0 |
| 20260504205617 | 82 | 249 | 7.8 | 10.4 | 0.00 | 0.05 | 0.05 | 47 | 998.0 |
| 20260504204616 | 82 | 219 | 4.3 | 12.2 | 0.00 | 0.05 | 0.05 | 47 | 998.0 |
| 20260504203616 | 82 | 229 | 4.3 | 11.3 | 0.00 | 0.05 | 0.05 | 47 | 998.0 |
| 20260504202544 | 81 | 240 | 5.2 | 12.2 | 0.00 | 0.05 | 0.05 | 48 | 998.3 |
| 20260504201543 | 81 | 229 | 3.5 | 12.2 | 0.00 | 0.05 | 0.05 | 48 | 998.3 |
| 20260504200543 | 80 | 224 | 5.2 | 15.6 | 0.00 | 0.05 | 0.05 | 49 | 998.6 |
| 20260504195542 | 80 | 240 | 6.1 | 13.9 | 0.00 | 0.05 | 0.05 | 48 | 998.6 |
| 20260504194542 | 80 | 241 | 7.8 | 19.1 | 0.00 | 0.05 | 0.05 | 49 | 998.6 |
| 20260504193541 | 80 | 232 | 7.0 | 16.5 | 0.00 | 0.05 | 0.05 | 49 | 998.6 |
| 20260504192540 | 80 | 227 | 6.1 | 10.4 | 0.00 | 0.05 | 0.05 | 48 | 999.0 |
| 20260504191540 | 80 | 213 | 5.2 | 12.2 | 0.00 | 0.05 | 0.05 | 49 | 999.0 |
| 20260504190539 | 79 | 233 | 4.3 | 13.9 | 0.00 | 0.05 | 0.05 | 50 | 999.0 |
| 20260504185507 | 79 | 247 | 7.0 | 12.2 | 0.00 | 0.05 | 0.05 | 49 | 999.0 |
| 20260504184507 | 79 | 242 | 7.0 | 12.2 | 0.00 | 0.05 | 0.05 | 49 | 998.6 |
| 20260504183506 | 79 | 182 | 4.3 | 13.0 | 0.00 | 0.05 | 0.05 | 50 | 998.6 |
| 20260504182505 | 78 | 197 | 5.2 | 11.3 | 0.00 | 0.05 | 0.05 | 49 | 998.6 |
| 20260504181505 | 78 | 243 | 4.3 | 16.5 | 0.00 | 0.05 | 0.05 | 51 | 999.0 |
| 20260504180433 | 78 | 232 | 7.8 | 18.2 | 0.00 | 0.05 | 0.05 | 49 | 999.0 |
| 20260504175432 | 78 | 234 | 5.2 | 10.4 | 0.00 | 0.05 | 0.05 | 50 | 999.0 |
| 20260504174431 | 78 | 207 | 5.2 | 11.3 | 0.00 | 0.05 | 0.05 | 51 | 999.3 |
| 20260504173431 | 77 | 218 | 5.2 | 11.3 | 0.00 | 0.05 | 0.05 | 52 | 999.3 |
| 20260504172430 | 77 | 231 | 9.6 | 16.5 | 0.00 | 0.05 | 0.05 | 50 | 999.3 |
| 20260504171430 | 77 | 224 | 4.3 | 12.2 | 0.00 | 0.05 | 0.05 | 52 | 999.7 |
| 20260504170429 | 77 | 226 | 5.2 | 8.7 | 0.00 | 0.05 | 0.05 | 52 | 999.7 |
| 20260504160322 | 74 | 233 | 7.8 | 13.9 | 0.00 | 0.05 | 0.05 | 54 | 1000.3 |
| 20260504150318 | 72 | 235 | 5.2 | 12.2 | 0.00 | 0.05 | 0.05 | 60 | 1000.7 |
| 20260504141213 | 68 | 234 | 4.3 | 7.8 | 0.00 | 0.05 | 0.05 | 67 | 1001.0 |
| 20260504140213 | 67 | 234 | 4.3 | 8.7 | 0.00 | 0.05 | 0.05 | 69 | 1001.0 |
| 20260504130208 | 64 | 223 | 3.5 | 5.2 | 0.00 | 0.05 | 0.05 | 75 | 1001.4 |
| 20260504120204 | 64 | 331 | 0.0 | 4.3 | 0.00 | 0.05 | 0.05 | 70 | 1001.4 |
| 20260504081843 | 57 | 197 | 0.0 | 0.0 | 0.01 | 0.05 | 0.05 | 89 | 1003.4 |
| 20260504080843 | 57 | 197 | 0.0 | 0.0 | 0.02 | 0.05 | 0.05 | 89 | 1003.7 |